User: anonymous   Login
Location: Unspecified
(0.0000°N, 0.0000°E)
Time: 19:57:50
(UTC+00:00)
Language:

COSMOS 2497 - Orbit

View from above orbital plane
View from above orbital plane
View from above satellite
View from above satellite

Ground track
Ground track

The orbit data is extracted from the following two-line orbital elements,

1 39762U 14028B   21025.67552899  .00000008  00000-0 -17081-4 0  9993
2 39762  82.4502 262.6707 0020841  41.3990 318.8664 12.42882275303048
Epoch (UTC): 25 January 2021 16:12:45
Eccentricity: 0.0020841
inclination: 82.4502°
perigee height: 1478 km
apogee height: 1511 km
right ascension of ascending node: 262.6707°
argument of perigee: 41.3990°
revolutions per day: 12.42882275
mean anomaly at epoch: 318.8664°
orbit number at epoch: 30304

The dashed part of the orbit path shows where the satellite is in the earth's shadow,  

DLR